Time,TemperatureF,DewpointF,PressureIn,WindDirection,WindDirectionDegrees,WindSpeedMPH,WindSpeedGustMPH,Humidity,HourlyPrecipIn,Conditions,Clouds,dailyrainin,SoftwareType,DateUTC
2013-02-14 00:02:00,34.0,27.0,29.83,SSW,200,9.0,-999.0,74,-99.99,,,-99.99,,2013-02-14 05:02:00,
2013-02-14 00:11:00,34.0,28.0,29.83,SSW,200,8.0,-999.0,80,-99.99,,,-99.99,,2013-02-14 05:11:00,
2013-02-14 00:22:00,34.0,28.0,29.83,SSW,210,9.0,-999.0,80,-99.99,,,-99.99,,2013-02-14 05:22:00,
2013-02-14 00:32:00,34.0,28.0,29.83,SSW,200,9.0,-999.0,80,-99.99,,,-99.99,,2013-02-14 05:32:00,
2013-02-14 00:42:00,34.0,28.0,29.83,SSW,200,9.0,-999.0,80,-99.99,,,-99.99,,2013-02-14 05:42:00,
2013-02-14 00:52:00,34.0,28.0,29.83,South,190,9.0,-999.0,80,-99.99,,,-99.99,,2013-02-14 05:52:00,
2013-02-14 01:02:00,34.0,28.0,29.83,South,190,9.0,-999.0,80,-99.99,,,-99.99,,2013-02-14 06:02:00,
2013-02-14 01:11:00,34.0,28.0,29.83,South,190,9.0,-999.0,80,-99.99,,,-99.99,,2013-02-14 06:11:00,
2013-02-14 01:21:00,34.0,28.0,29.83,South,190,9.0,-999.0,80,-99.99,,,-99.99,,2013-02-14 06:21:00,
2013-02-14 01:32:00,32.0,28.0,29.83,South,190,9.0,-999.0,86,-99.99,,,-99.99,,2013-02-14 06:32:00,
2013-02-14 01:42:00,32.0,28.0,29.83,South,190,8.0,-999.0,86,-99.99,,,-99.99,,2013-02-14 06:42:00,
2013-02-14 01:51:00,32.0,28.0,29.83,South,190,10.0,-999.0,86,-99.99,,,-99.99,,2013-02-14 06:51:00,
2013-02-14 02:01:00,32.0,28.0,29.83,SSW,200,9.0,-999.0,86,-99.99,,,-99.99,,2013-02-14 07:01:00,
2013-02-14 02:11:00,32.0,28.0,29.83,SSW,200,8.0,-999.0,86,-99.99,,,-99.99,,2013-02-14 07:11:00,
2013-02-14 02:21:00,32.0,28.0,29.83,SSW,200,8.0,-999.0,86,-99.99,,,-99.99,,2013-02-14 07:21:00,
2013-02-14 02:32:00,32.0,28.0,29.83,SSW,200,8.0,-999.0,86,-99.99,,,-99.99,,2013-02-14 07:32:00,
2013-02-14 02:42:00,32.0,28.0,29.83,SSW,200,8.0,-999.0,86,-99.99,,,-99.99,,2013-02-14 07:42:00,
2013-02-14 02:51:00,32.0,28.0,29.83,SSW,200,9.0,-999.0,86,-99.99,,,-99.99,,2013-02-14 07:51:00,
2013-02-14 03:01:00,32.0,28.0,29.83,SSW,200,10.0,-999.0,86,-99.99,,,-99.99,,2013-02-14 08:01:00,
2013-02-14 03:11:00,32.0,28.0,29.83,SSW,200,9.0,-999.0,86,-99.99,,,-99.99,,2013-02-14 08:11:00,
2013-02-14 03:21:00,34.0,28.0,29.83,SSW,200,9.0,-999.0,80,-99.99,,,-99.99,,2013-02-14 08:21:00,
2013-02-14 03:32:00,34.0,28.0,29.82,SSW,200,10.0,-999.0,80,-99.99,,,-99.99,,2013-02-14 08:32:00,
2013-02-14 03:43:00,34.0,28.0,29.82,SSW,200,9.0,-999.0,80,-99.99,,,-99.99,,2013-02-14 08:43:00,
2013-02-14 03:52:00,34.0,28.0,29.82,SSW,200,9.0,-999.0,80,-99.99,,,-99.99,,2013-02-14 08:52:00,
2013-02-14 04:02:00,34.0,28.0,29.82,SSW,200,10.0,-999.0,80,-99.99,,,-99.99,,2013-02-14 09:02:00,
2013-02-14 04:11:00,34.0,30.0,29.82,South,190,9.0,-999.0,86,-99.99,,,-99.99,,2013-02-14 09:11:00,
2013-02-14 04:21:00,34.0,30.0,29.82,South,190,9.0,-999.0,86,-99.99,,,-99.99,,2013-02-14 09:21:00,
2013-02-14 04:32:00,32.0,30.0,29.82,South,190,10.0,-999.0,92,-99.99,,,-99.99,,2013-02-14 09:32:00,
2013-02-14 04:42:00,34.0,30.0,29.82,South,190,10.0,-999.0,86,-99.99,,,-99.99,,2013-02-14 09:42:00,
2013-02-14 04:51:00,32.0,30.0,29.83,South,190,9.0,-999.0,92,-99.99,,,-99.99,,2013-02-14 09:51:00,
2013-02-14 05:02:00,34.0,30.0,29.82,South,190,10.0,-999.0,86,-99.99,,,-99.99,,2013-02-14 10:02:00,
2013-02-14 05:11:00,34.0,30.0,29.82,SSW,200,10.0,-999.0,86,-99.99,,,-99.99,,2013-02-14 10:11:00,
2013-02-14 05:21:00,34.0,30.0,29.82,SSW,210,12.0,-999.0,86,-99.99,,,-99.99,,2013-02-14 10:21:00,
2013-02-14 05:32:00,34.0,32.0,29.82,SSW,210,12.0,-999.0,93,-99.99,,,-99.99,,2013-02-14 10:32:00,
2013-02-14 05:42:00,34.0,32.0,29.82,SSW,210,12.0,-999.0,93,-99.99,,,-99.99,,2013-02-14 10:42:00,
2013-02-14 05:52:00,34.0,32.0,29.82,SSW,210,12.0,16.0,93,-99.99,,,-99.99,,2013-02-14 10:52:00,
2013-02-14 06:02:00,34.0,32.0,29.82,SSW,210,12.0,16.0,93,-99.99,,,-99.99,,2013-02-14 11:02:00,
2013-02-14 06:11:00,36.0,32.0,29.82,SW,220,13.0,16.0,86,-99.99,,,-99.99,,2013-02-14 11:11:00,
2013-02-14 06:21:00,36.0,32.0,29.82,SW,220,10.0,-999.0,86,-99.99,,,-99.99,,2013-02-14 11:21:00,
2013-02-14 06:32:00,36.0,32.0,29.82,SW,220,13.0,-999.0,86,-99.99,,,-99.99,,2013-02-14 11:32:00,
2013-02-14 06:42:00,36.0,32.0,29.82,SW,220,13.0,-999.0,86,-99.99,,,-99.99,,2013-02-14 11:42:00,
2013-02-14 06:52:00,36.0,32.0,29.82,SSW,210,10.0,-999.0,86,-99.99,,,-99.99,,2013-02-14 11:52:00,
2013-02-14 07:02:00,36.0,32.0,29.82,SSW,210,12.0,-999.0,86,-99.99,,,-99.99,,2013-02-14 12:02:00,
2013-02-14 07:12:00,36.0,32.0,29.83,SW,220,13.0,18.0,86,-99.99,,,-99.99,,2013-02-14 12:12:00,
2013-02-14 07:22:00,34.0,32.0,29.83,SSW,210,9.0,-999.0,93,-99.99,,,-99.99,,2013-02-14 12:22:00,
2013-02-14 07:32:00,34.0,32.0,29.83,SSW,210,8.0,-999.0,93,-99.99,,,-99.99,,2013-02-14 12:32:00,
2013-02-14 07:42:00,34.0,32.0,29.83,SSW,200,9.0,-999.0,93,-99.99,,,-99.99,,2013-02-14 12:42:00,
2013-02-14 07:53:00,36.0,32.0,29.83,SSW,200,10.0,-999.0,86,-99.99,,,-99.99,,2013-02-14 12:53:00,
2013-02-14 08:02:00,36.0,32.0,29.83,SSW,200,12.0,-999.0,86,-99.99,,,-99.99,,2013-02-14 13:02:00,
2013-02-14 08:11:00,36.0,32.0,29.83,SSW,200,10.0,17.0,86,-99.99,,,-99.99,,2013-02-14 13:11:00,
2013-02-14 08:21:00,36.0,32.0,29.83,SSW,200,12.0,-999.0,86,-99.99,,,-99.99,,2013-02-14 13:21:00,
2013-02-14 08:32:00,36.0,32.0,29.83,SSW,200,12.0,17.0,86,-99.99,,,-99.99,,2013-02-14 13:32:00,
2013-02-14 08:42:00,36.0,32.0,29.84,SSW,200,13.0,17.0,86,-99.99,,,-99.99,,2013-02-14 13:42:00,
2013-02-14 08:51:00,36.0,32.0,29.83,South,190,13.0,17.0,86,-99.99,,,-99.99,,2013-02-14 13:51:00,
2013-02-14 09:01:00,36.0,32.0,29.84,SSW,200,13.0,17.0,86,-99.99,,,-99.99,,2013-02-14 14:01:00,
2013-02-14 09:11:00,36.0,34.0,29.84,SSW,200,15.0,-999.0,93,-99.99,,,-99.99,,2013-02-14 14:11:00,
2013-02-14 09:21:00,36.0,34.0,29.83,South,190,13.0,17.0,93,-99.99,,,-99.99,,2013-02-14 14:21:00,
2013-02-14 09:32:00,36.0,34.0,29.83,South,190,12.0,-999.0,93,-99.99,,,-99.99,,2013-02-14 14:32:00,
2013-02-14 09:42:00,36.0,34.0,29.83,South,190,14.0,-999.0,93,-99.99,,,-99.99,,2013-02-14 14:42:00,
2013-02-14 09:52:00,36.0,34.0,29.83,South,190,14.0,-999.0,93,-99.99,,,-99.99,,2013-02-14 14:52:00,
2013-02-14 10:02:00,36.0,34.0,29.83,South,190,14.0,18.0,93,-99.99,,,-99.99,,2013-02-14 15:02:00,
2013-02-14 10:11:00,36.0,34.0,29.82,South,190,14.0,20.0,93,-99.99,,,-99.99,,2013-02-14 15:11:00,
2013-02-14 10:21:00,37.0,34.0,29.82,South,180,15.0,20.0,86,-99.99,,,-99.99,,2013-02-14 15:21:00,
2013-02-14 10:32:00,37.0,34.0,29.82,South,180,16.0,21.0,86,-99.99,,,-99.99,,2013-02-14 15:32:00,
2013-02-14 10:42:00,37.0,34.0,29.81,South,180,18.0,22.0,86,-99.99,,,-99.99,,2013-02-14 15:42:00,
2013-02-14 10:52:00,37.0,34.0,29.82,South,190,15.0,20.0,86,-99.99,,,-99.99,,2013-02-14 15:52:00,
2013-02-14 11:02:00,37.0,34.0,29.81,South,190,16.0,-999.0,86,-99.99,,,-99.99,,2013-02-14 16:02:00,
2013-02-14 11:11:00,37.0,34.0,29.81,South,190,16.0,20.0,86,-99.99,,,-99.99,,2013-02-14 16:11:00,
2013-02-14 11:21:00,37.0,34.0,29.81,South,190,15.0,24.0,86,-99.99,,,-99.99,,2013-02-14 16:21:00,
2013-02-14 11:32:00,37.0,34.0,29.81,South,180,15.0,24.0,86,-99.99,,,-99.99,,2013-02-14 16:32:00,
2013-02-14 11:41:00,39.0,34.0,29.81,South,180,17.0,-999.0,80,-99.99,,,-99.99,,2013-02-14 16:41:00,
2013-02-14 11:51:00,39.0,34.0,29.81,South,180,22.0,27.0,80,-99.99,,,-99.99,,2013-02-14 16:51:00,
2013-02-14 12:01:00,37.0,34.0,29.80,South,180,17.0,27.0,86,-99.99,,,-99.99,,2013-02-14 17:01:00,
2013-02-14 12:11:00,37.0,34.0,29.80,South,180,20.0,25.0,86,-99.99,,,-99.99,,2013-02-14 17:11:00,
2013-02-14 12:21:00,39.0,34.0,29.80,South,170,18.0,-999.0,80,-99.99,,,-99.99,,2013-02-14 17:21:00,
2013-02-14 12:32:00,39.0,34.0,29.80,South,190,18.0,25.0,80,-99.99,,,-99.99,,2013-02-14 17:32:00,
2013-02-14 12:42:00,41.0,34.0,29.80,SSW,200,21.0,25.0,75,-99.99,,,-99.99,,2013-02-14 17:42:00,
2013-02-14 12:52:00,39.0,34.0,29.80,South,190,20.0,24.0,80,-99.99,,,-99.99,,2013-02-14 17:52:00,
2013-02-14 13:01:00,39.0,34.0,29.80,South,190,18.0,24.0,80,-99.99,,,-99.99,,2013-02-14 18:01:00,
2013-02-14 13:11:00,39.0,34.0,29.78,South,180,18.0,25.0,80,-99.99,,,-99.99,,2013-02-14 18:11:00,
2013-02-14 13:23:00,41.0,34.0,29.78,South,190,16.0,23.0,75,-99.99,,,-99.99,,2013-02-14 18:23:00,
2013-02-14 13:32:00,43.0,34.0,29.78,SSW,200,18.0,25.0,70,-99.99,,,-99.99,,2013-02-14 18:32:00,
2013-02-14 13:42:00,43.0,34.0,29.77,SSW,200,15.0,-999.0,70,-99.99,,,-99.99,,2013-02-14 18:42:00,
2013-02-14 13:51:00,45.0,34.0,29.77,SW,220,18.0,25.0,65,-99.99,,,-99.99,,2013-02-14 18:51:00,
2013-02-14 14:02:00,45.0,34.0,29.77,SSW,200,17.0,23.0,65,-99.99,,,-99.99,,2013-02-14 19:02:00,
2013-02-14 14:11:00,45.0,34.0,29.77,SSW,210,17.0,24.0,65,-99.99,,,-99.99,,2013-02-14 19:11:00,
2013-02-14 14:21:00,45.0,36.0,29.76,SSW,200,18.0,22.0,70,-99.99,,,-99.99,,2013-02-14 19:21:00,
2013-02-14 14:32:00,46.0,36.0,29.76,SSW,200,17.0,21.0,65,-99.99,,,-99.99,,2013-02-14 19:32:00,
2013-02-14 14:42:00,46.0,36.0,29.76,SW,220,15.0,21.0,65,-99.99,,,-99.99,,2013-02-14 19:42:00,
2013-02-14 14:52:00,46.0,36.0,29.75,SW,220,14.0,20.0,65,-99.99,,,-99.99,,2013-02-14 19:52:00,
2013-02-14 15:01:00,46.0,36.0,29.75,SW,230,18.0,-999.0,65,-99.99,,,-99.99,,2013-02-14 20:01:00,
2013-02-14 15:11:00,46.0,34.0,29.76,SW,230,23.0,29.0,61,-99.99,,,-99.99,,2013-02-14 20:11:00,
2013-02-14 15:21:00,46.0,34.0,29.76,SW,220,21.0,29.0,61,-99.99,,,-99.99,,2013-02-14 20:21:00,
2013-02-14 15:32:00,46.0,34.0,29.76,SW,230,22.0,29.0,61,-99.99,,,-99.99,,2013-02-14 20:32:00,
2013-02-14 15:42:00,46.0,34.0,29.76,SW,230,22.0,29.0,61,-99.99,,,-99.99,,2013-02-14 20:42:00,
2013-02-14 15:52:00,46.0,34.0,29.77,SW,220,21.0,30.0,61,-99.99,,,-99.99,,2013-02-14 20:52:00,
2013-02-14 16:02:00,46.0,34.0,29.77,SW,230,16.0,27.0,61,-99.99,,,-99.99,,2013-02-14 21:02:00,
2013-02-14 16:11:00,46.0,34.0,29.78,SW,220,21.0,27.0,61,-99.99,,,-99.99,,2013-02-14 21:11:00,
2013-02-14 16:21:00,46.0,34.0,29.78,SW,230,14.0,18.0,61,-99.99,,,-99.99,,2013-02-14 21:21:00,
2013-02-14 16:32:00,46.0,34.0,29.78,SW,230,17.0,25.0,61,-99.99,,,-99.99,,2013-02-14 21:32:00,
2013-02-14 16:42:00,48.0,34.0,29.78,SW,230,17.0,25.0,57,-99.99,,,-99.99,,2013-02-14 21:42:00,
2013-02-14 16:51:00,46.0,34.0,29.79,WSW,240,17.0,22.0,61,-99.99,,,-99.99,,2013-02-14 21:51:00,
2013-02-14 17:02:00,46.0,34.0,29.79,WSW,240,20.0,27.0,61,-99.99,,,-99.99,,2013-02-14 22:02:00,
2013-02-14 17:11:00,46.0,32.0,29.79,WSW,240,18.0,28.0,57,-99.99,,,-99.99,,2013-02-14 22:11:00,
2013-02-14 17:21:00,46.0,32.0,29.80,WSW,250,14.0,-999.0,57,-99.99,,,-99.99,,2013-02-14 22:21:00,
2013-02-14 17:32:00,46.0,32.0,29.81,West,260,15.0,23.0,57,-99.99,,,-99.99,,2013-02-14 22:32:00,
2013-02-14 17:42:00,46.0,32.0,29.81,West,280,15.0,23.0,57,-99.99,,,-99.99,,2013-02-14 22:42:00,
2013-02-14 17:51:00,45.0,34.0,29.82,West,280,12.0,20.0,65,-99.99,,,-99.99,,2013-02-14 22:51:00,
2013-02-14 18:01:00,43.0,34.0,29.83,West,280,10.0,16.0,70,-99.99,,,-99.99,,2013-02-14 23:01:00,
2013-02-14 18:11:00,43.0,34.0,29.83,West,270,15.0,21.0,70,-99.99,,,-99.99,,2013-02-14 23:11:00,
2013-02-14 18:21:00,43.0,32.0,29.85,WNW,290,14.0,30.0,65,-99.99,,,-99.99,,2013-02-14 23:21:00,
2013-02-14 18:32:00,43.0,32.0,29.86,West,270,17.0,24.0,65,-99.99,,,-99.99,,2013-02-14 23:32:00,
2013-02-14 18:42:00,41.0,32.0,29.86,WNW,290,16.0,27.0,70,-99.99,,,-99.99,,2013-02-14 23:42:00,
2013-02-14 18:52:00,39.0,30.0,29.88,West,270,14.0,21.0,69,-99.99,,,-99.99,,2013-02-14 23:52:00,
2013-02-14 19:01:00,39.0,28.0,29.88,West,270,13.0,21.0,64,-99.99,,,-99.99,,2013-02-15 00:01:00,
2013-02-14 19:11:00,37.0,28.0,29.89,West,270,14.0,23.0,69,-99.99,,,-99.99,,2013-02-15 00:11:00,
2013-02-14 19:22:00,37.0,28.0,29.90,West,270,13.0,22.0,69,-99.99,,,-99.99,,2013-02-15 00:22:00,
2013-02-14 19:32:00,37.0,28.0,29.90,West,270,13.0,20.0,69,-99.99,,,-99.99,,2013-02-15 00:32:00,
2013-02-14 19:42:00,37.0,28.0,29.90,West,270,14.0,20.0,69,-99.99,,,-99.99,,2013-02-15 00:42:00,
2013-02-14 19:51:00,39.0,28.0,29.91,West,260,12.0,22.0,64,-99.99,,,-99.99,,2013-02-15 00:51:00,
2013-02-14 20:02:00,39.0,28.0,29.91,West,270,10.0,23.0,64,-99.99,,,-99.99,,2013-02-15 01:02:00,
2013-02-14 20:11:00,39.0,28.0,29.91,West,260,21.0,25.0,64,-99.99,,,-99.99,,2013-02-15 01:11:00,
2013-02-14 20:21:00,39.0,28.0,29.92,West,270,14.0,23.0,64,-99.99,,,-99.99,,2013-02-15 01:21:00,
2013-02-14 20:32:00,39.0,28.0,29.92,West,260,16.0,21.0,64,-99.99,,,-99.99,,2013-02-15 01:32:00,
2013-02-14 20:41:00,39.0,28.0,29.92,West,260,16.0,21.0,64,-99.99,,,-99.99,,2013-02-15 01:41:00,
2013-02-14 20:51:00,39.0,28.0,29.93,West,260,13.0,-999.0,64,-99.99,,,-99.99,,2013-02-15 01:51:00,
2013-02-14 21:01:00,39.0,28.0,29.93,West,270,12.0,18.0,64,-99.99,,,-99.99,,2013-02-15 02:01:00,
2013-02-14 21:11:00,39.0,28.0,29.93,WNW,290,12.0,23.0,64,-99.99,,,-99.99,,2013-02-15 02:11:00,
2013-02-14 21:21:00,39.0,27.0,29.93,West,260,13.0,20.0,60,-99.99,,,-99.99,,2013-02-15 02:21:00,
2013-02-14 21:32:00,37.0,27.0,29.93,West,260,13.0,18.0,64,-99.99,,,-99.99,,2013-02-15 02:32:00,
2013-02-14 21:42:00,37.0,28.0,29.94,West,260,14.0,-999.0,69,-99.99,,,-99.99,,2013-02-15 02:42:00,
2013-02-14 21:52:00,37.0,28.0,29.94,WSW,250,10.0,-999.0,69,-99.99,,,-99.99,,2013-02-15 02:52:00,
2013-02-14 22:02:00,37.0,28.0,29.94,WSW,250,10.0,16.0,69,-99.99,,,-99.99,,2013-02-15 03:02:00,
2013-02-14 22:11:00,37.0,28.0,29.94,WSW,250,12.0,16.0,69,-99.99,,,-99.99,,2013-02-15 03:11:00,
2013-02-14 22:22:00,37.0,28.0,29.95,West,260,9.0,-999.0,69,-99.99,,,-99.99,,2013-02-15 03:22:00,
2013-02-14 22:32:00,37.0,28.0,29.94,West,260,9.0,16.0,69,-99.99,,,-99.99,,2013-02-15 03:32:00,
2013-02-14 22:42:00,37.0,28.0,29.94,West,260,10.0,16.0,69,-99.99,,,-99.99,,2013-02-15 03:42:00,
2013-02-14 22:51:00,37.0,27.0,29.94,WSW,250,8.0,-999.0,64,-99.99,,,-99.99,,2013-02-15 03:51:00,
2013-02-14 23:01:00,37.0,27.0,29.94,WSW,240,9.0,-999.0,64,-99.99,,,-99.99,,2013-02-15 04:01:00,
2013-02-14 23:11:00,37.0,27.0,29.94,WSW,240,8.0,-999.0,64,-99.99,,,-99.99,,2013-02-15 04:11:00,
2013-02-14 23:21:00,37.0,27.0,29.94,WSW,240,7.0,-999.0,64,-99.99,,,-99.99,,2013-02-15 04:21:00,
2013-02-14 23:32:00,37.0,27.0,29.94,WSW,250,9.0,-999.0,64,-99.99,,,-99.99,,2013-02-15 04:32:00,
2013-02-14 23:42:00,37.0,27.0,29.94,WSW,250,10.0,-999.0,64,-99.99,,,-99.99,,2013-02-15 04:42:00,
2013-02-14 23:52:00,37.0,27.0,29.94,WSW,250,10.0,-999.0,64,-99.99,,,-99.99,,2013-02-15 04:52:00,